Regional Weather Roundup
Issued by NWS

Home | Current Version | Previous Version | Graphics & Text | Print | Product List | Glossary On
Versions: 1 2 3 4 5 6 7 8 9 10 11 12 13 14 15 16 17 18 19 20 21 22 23 24 25 26 27 28 29 30 31 32 33 34 35 36 37 38 39 40 41 42 43 44 45 46 47 48 49 50
492
ASUS43 KLSX 242310
RWRMO

WEATHER SUMMARY FOR MISSOURI
NATIONAL WEATHER SERVICE SPRINGFIELD MO
500 PM CST FRI FEB 24 2017

NOTE: "FAIR" INDICATES FEW OR NO CLOUDS BELOW 12,000 FEET WITH NO
       SIGNIFICANT WEATHER AND/OR OBSTRUCTIONS TO VISIBILITY.
       CURRENT SKY AND/OR WEATHER CONDITIONS ARE NOT AVAILABLE FOR
       CHILLICOTHE AND FARMINGTON.

MOZ001>031-035>038-043-044-053-054-250000-
...NORTHERN AND WESTERN MISSOURI...

CITY           SKY/WX    TMP DP  RH WIND       PRES   REMARKS
KANSAS CTY INT LGT SNOW  30  24  78 NW14G23   29.86R WCI  19
KANSAS C DTWN  CLOUDY    33  23  66 NW15G25   29.86R WCI  23
LEE`S SUMMIT   CLOUDY    32  22  66 NW21      29.85R WCI  20
ST JOSEPH      LGT SNOW  28  26  92 NW21      29.89R FOG     WCI  15
CHILLICOTHE      N/A     30  26  85 NW14G24   29.81R WCI  19
KIRKSVILLE     CLOUDY    34  32  92 W14       29.69R FOG     WCI  25

$$
MOZ066>068-077>081-088>096-101>105-250000-
...SOUTHWEST MISSOURI...

CITY           SKY/WX    TMP DP  RH WIND       PRES   REMARKS
SPRINGFIELD    MOSUNNY   45  26  47 W18G26    29.79R
JOPLIN         PTSUNNY   41  26  55 NW21G32   29.88R
BRANSON        MOSUNNY   50  27  40 W16G23    29.78R

$$
MOZ032>034-039>042-045>050-055>058-069>072-250000-
...CENTRAL MISSOURI...

CITY           SKY/WX    TMP DP  RH WIND       PRES   REMARKS
COLUMBIA       CLOUDY    44  31  60 W21G32    29.71R
JEFFERSON CITY CLOUDY    46  29  51 W24G31    29.72R
ROLLA          PTCLDY    46  29  51 W14G23    29.70R
SEDALIA        CLOUDY    40  29  64 NW23G31   29.78R WCI  30
WHITEMAN AFB   CLOUDY    36  30  77 NW18      29.79R WCI  26
WARRENSBURG    CLOUDY    34  27  75 W15G23    29.84R WCI  24
OSAGE BEACH    PTSUNNY   45  26  47 W12G18    29.77R

$$
MOZ051-052-059>065-250000-
...EAST CENTRAL MISSOURI...

CITY           SKY/WX    TMP DP  RH WIND       PRES   REMARKS
ST LOUIS INTL  PTCLDY    53  33  46 W23G31    29.65R
SPIRIT OF STL  PTCLDY    50  33  52 W22G29    29.67R
ST CHARLES     PTCLDY    51  33  50 W23G32    29.66R

$$
MOZ072>076-082>087-097>100-106>115-250000-
...SOUTH CENTRAL AND SOUTHEAST MISSOURI...

CITY           SKY/WX    TMP DP  RH WIND       PRES   REMARKS
CAPE GIRARDEAU CLOUDY    64  47  53 W18       29.63R
FARMINGTON     CLEAR     56  35  45 W13G20    29.67R
POPLAR BLUFF   MOCLDY    63  43  48 W14       29.66R
WEST PLAINS    SUNNY     51  32  48 W10G18    29.74R

$$




USA.gov is the U.S. government's official web portal to all federal, state and local government web resources and services.